This demonstration page uses our WeatherBlox Daily Observations layout. Learn more.

Left ArrowRight Arrow

Hourly Observations for December 4, 2021

Temp ( °F °C ) Dew Point ( °F °C ) Humidity (%) Winds ( mph kmh ) Pressure ( in mb ) Visibility ( mi km ) Precip ( " mm )
12:59 am 00:59 Clear 49 9.4 42 5.6 77 77 ESE 6 9 30.06 1018 10 16 0.00 0.00
1:59 am 01:59 Clear 48 8.9 41 5 77 77 S 3 6 30.05 1018 10 16 0.00 0.00
2:59 am 02:59 Clear 46 7.8 41 5 83 83 Calm 30.06 1018 10 16 0.00 0.00
3:59 am 03:59 Mostly Clear 49 9.4 43 6.1 80 80 SSE 5 7 30.04 1017 10 16 0.00 0.00
4:59 am 04:59 Mostly Clear 47 8.3 42 5.6 83 83 Calm 30.03 1017 10 16 0.00 0.00
5:59 am 05:59 Mostly Clear 44 6.7 41 5 89 89 Calm 30.03 1017 9 14 0.00 0.00
6:59 am 06:59 Partly Cloudy 48 8.9 44 6.7 86 86 S 6 9 30.04 1017 10 16 0.00 0.00
7:59 am 07:59 Mostly Cloudy 51 10.6 46 7.8 83 83 WSW 3 6 30.05 1018 8 13 0.00 0.00
8:59 am 08:59 Mostly Cloudy 53 11.7 47 8.3 80 80 WSW 6 9 30.06 1018 9 14 0.00 0.00
9:59 am 09:59 Mostly Cloudy 54 12.2 47 8.3 77 77 W 9 15 30.08 1019 8 13 0.00 0.00
10:59 am 10:59 Mostly Cloudy 57 13.9 47 8.3 69 69 WNW 9 15 30.08 1019 8 13 0.00 0.00
11:59 am 11:59 Mostly Cloudy 59 15 45 7.2 60 60 W 7 11 30.07 1018 9 14 0.00 0.00
12:59 pm 12:59 Mostly Cloudy 61 16.1 45 7.2 56 56 WNW 6 9 30.06 1018 9 14 0.00 0.00
1:59 pm 13:59 Cloudy 59 15 46 7.8 62 62 NNE 7 11 30.07 1018 9 14 0.00 0.00
2:59 pm 14:59 Cloudy 55 12.8 46 7.8 72 72 NE 7 11 30.08 1019 8 13 0.00 0.00
3:59 pm 15:59 Mostly Cloudy 53 11.7 45 7.2 74 74 NE 9 15 30.10 1019 10 16 0.00 0.00
4:59 pm 16:59 Mostly Cloudy 52 11.1 44 6.7 75 75 NNE 9 15 30.12 1020 10 16 0.00 0.00
5:59 pm 17:59 Mostly Cloudy 52 11.1 44 6.7 75 75 NNE 7 11 30.14 1021 10 16 0.00 0.00
6:59 pm 18:59 Mostly Cloudy 51 10.6 45 7.2 80 80 Calm 30.16 1022 10 16 0.00 0.00
7:59 pm 19:59 Mostly Cloudy 50 10 45 7.2 83 83 NE 5 7 30.18 1022 10 16 0.00 0.00
8:59 pm 20:59 Mostly Cloudy 50 10 45 7.2 83 83 E 3 6 30.19 1022 9 14 0.00 0.00
9:59 pm 21:59 Cloudy 48 8.9 44 6.7 86 86 Calm 30.22 1024 9 14 0.00 0.00
10:59 pm 22:59 Cloudy 47 8.3 43 6.1 86 86 NNE 3 6 30.23 1024 9 14 0.00 0.00
11:59 pm 23:59 Mostly Cloudy 47 8.3 43 6.1 86 86 Calm 30.24 1024 10 16 0.00 0.00

Powered by AerisWeather